Погода в Новонежино

Россия / Приморский край     43°13′00″N   132°36′03″E
темп.,
°C
ветер,
м/с
пор.,
м/с
влажн.,
%
обл.,
%
осадки,
мм/ч
давл.,
гПа
погр.,
м
14 мая, пт
пт1401:00+8в117778 0.1 101412
04:00+7в11840 0.1 101410
07:00+8в118157 0.0 101534
10:00+17юз125258 0.0 1015386
13:00+20зюз2344100 0.0 1014634
16:00+17юз2554100 0.0 1013473
19:00+14юз247084 0.0 1012198
22:00+11ююв1283100 0.0 101439
15 мая, сб
сб1501:00+11юв2583100 0.0 1013136
04:00+10юв2695100 0.0 1011174
07:00+12юв2790100 0.0 1011286
10:00+18ю586974 0.0 1010882
13:00+20ююз58659 0.0 1008816
16:00+21юз46619 0.0 1006747
19:00+13ссз2696100 0.6 1009367
22:00+10ссв2892100 2.6 1011445
16 мая, вс
вс1601:00+10ссв2394100 0.1 1010101
04:00+10ссв1291100 0.3 101053
07:00+10ссв2290100 0.0 101054
10:00+11ссв1288100 0.0 101051
13:00+11с1491100 0.3 1010276
16:00+11всв0291100 0.6 1008201
19:00+11ююв1190100 0.0 100763
22:00+9ююз1195100 0.0 100712
17 мая, пн
пн1701:00+8юв1197100 0.0 100710
04:00+7всв1196100 0.0 100610
07:00+9всв118776 0.0 100732
10:00+18сз11510 0.0 1006376
13:00+22зсз3435100 0.0 10061592
16:00+22зюз3335100 0.0 10051037
19:00+16ююз1262100 0.0 100694
22:00+11ююв1166100 0.0 100814
18 мая, вт
вт1801:00+11вюв2160100 0.0 100815
04:00+11вюв225471 0.0 100818
07:00+12вюв11562 0.0 100920
10:00+20юз24380 0.0 1008571
13:00+21юз35392 0.0 1008713
16:00+21юз37372 0.0 1007616
19:00+16юз27590 0.0 1009317
22:00+11ююв21770 0.0 101124